User: anonymous   Login
Location: Altleiningen
(49.5078°N, 8.0741°E)
Time: 18:22:27
(UTC+00:00)
Language:

SL-4 R/B - Orbit

View from above orbital plane
View from above orbital plane
View from above satellite
View from above satellite

Ground track
Ground track

The orbit data is extracted from the following two-line orbital elements,

1 39679U 14021B   21135.89503571  .00000509  00000-0  42321-4 0  9992
2 39679  51.6172   4.1275 0170532  18.3714 342.3315 15.06947607389140
Epoch (UTC): 15 May 2021 21:28:51
Eccentricity: 0.0170532
inclination: 51.6172°
perigee height: 427 km
apogee height: 663 km
right ascension of ascending node: 4.1275°
argument of perigee: 18.3714°
revolutions per day: 15.06947607
mean anomaly at epoch: 342.3315°
orbit number at epoch: 38914

The dashed part of the orbit path shows where the satellite is in the earth's shadow,  

DLR